[[{"header":{"parameterUnit":"m.s-1","parameterCategory":1,"la1":30.2991,"la2":30.254,"lo1":-89.0895,"lo2":-89.0444,"dy":0.0017,"dx":0.0017,"nx":28,"ny":28,"refTime":"2024-12-13T03:00:00:Z","depth":0,"parameterNumber":2,"parameterNumberName":"U-component_of_WINDS"},"data":[0,0,0,0,0,0,0,0,0,0,0,0,0,0,0,0,0,0,0,0,0,0,0,0,0,0,0,0,0,0,0,0,0,0,0,0,0,0,0,0,0,0,0,0,0,0,0,0,0,0,0,0,0,0,0,0,0,0,-3.8263,-3.8264,0,-3.8344,-3.8345,-3.8346,-3.8221,-3.8217,-3.8212,-3.8208,-3.8294,-3.8301,-3.8307,0,0,0,0,0,0,0,0,0,0,0,0,0,-3.8002,-3.8007,-3.8263,-3.8264,-3.8265,-3.8344,-3.8345,-3.8346,-3.8222,-3.8216,-3.8211,-3.8206,-3.8292,-3.83,-3.8307,0,0,0,0,0,0,0,0,0,0,0,0,0,-3.8102,-3.8009,-3.8262,-3.8212,-3.8208,-3.8343,-3.8345,-3.8346,-3.8223,-3.8216,-3.821,-3.8204,-3.829,-3.8299,-3.8308,-3.8498,0,0,-3.8338,-3.8342,0,0,0,0,0,0,0,0,-3.8097,-3.8112,-3.8219,-3.8216,-3.8212,-3.8265,-3.8284,-3.8397,-3.8224,-3.8217,-3.8208,-3.82,-3.829,-3.8299,-3.8329,-3.8502,-3.8505,-3.8338,-3.8344,-3.8348,-3.8351,0,0,0,0,0,0,0,-3.809,-3.8108,-3.8295,-3.822,-3.8216,-3.8186,-3.8193,-3.8305,-3.829,-3.8218,-3.8209,-3.822,-3.8287,-3.832,-3.833,-3.8507,-3.8338,-3.8347,-3.8352,-3.8356,-3.8838,-3.8844,0,0,0,0,0,0,-3.8089,-3.8103,-3.8292,-3.8297,-3.8137,-3.8196,-3.8204,-3.8255,-3.8288,-3.8287,-3.8225,-3.8214,-3.8307,-3.8319,-3.8333,-3.8556,-3.8348,-3.8357,-3.8363,-3.8831,-3.8839,-3.8847,0,0,0,0,0,0,-3.8084,-3.8107,-3.8289,-3.8198,-3.8218,-3.8207,-3.8266,-3.826,-3.8293,-3.8294,-3.829,-3.8262,-3.8302,-3.8319,-3.8457,-3.8557,-3.8361,-3.837,-3.8822,-3.8833,-3.8843,-3.9005,0,0,0,0,0,0,-3.8077,-3.8106,-3.8177,-3.82,-3.8224,-3.8412,-3.8272,-3.8266,-3.8309,-3.8295,-3.8327,-3.8326,-3.8299,-3.8444,-3.8467,-3.8567,-3.8377,-3.8813,-3.8827,-3.884,-3.899,-3.9019,-3.9044,0,0,0,0,0,-3.8068,-3.8221,-3.8182,-3.8205,-3.8313,-3.8418,-3.8432,-3.8396,-3.8318,-3.839,-3.839,-3.8325,-3.8542,-3.8459,-3.8484,-3.8588,-3.8807,-3.8823,-3.8839,-3.8978,-3.9014,-3.9044,0,0,0,0,0,0,-3.8211,-3.8223,-3.818,-3.8344,-3.8381,-3.8397,-3.8487,-3.8435,-3.8496,-3.848,-3.8433,-3.8442,-3.859,-3.8602,-3.8509,-3.8772,-3.8661,-3.8683,-3.8759,-3.8793,-3.8819,-3.8814,-3.8385,0,0,0,0,0,-3.8262,-3.8346,-3.8351,-3.8496,-3.8516,-3.8499,-3.8543,-3.8512,-3.8549,-3.8564,-3.8575,-3.8614,-3.869,-3.8742,-3.8813,-3.8991,-3.8996,-3.9075,-3.9102,-3.9124,-3.9144,-3.9239,-3.9274,-3.8899,-3.8899,-3.8899,0,0,-3.8368,-3.8384,-3.844,-3.8525,-3.855,-3.8638,-3.8513,-3.8612,-3.8677,-3.8579,-3.871,-3.8719,-3.8759,-3.8918,-3.8989,-3.8933,-3.9248,-3.9144,-3.9162,-3.917,-3.9259,-3.9294,-3.9326,-3.891,-3.8908,-3.8906,0,0,-3.8606,-3.8627,-3.8749,-3.8776,-3.8814,-3.8801,-3.8831,-3.8855,-3.8856,-3.8986,-3.8915,-3.8992,-3.9125,-3.9156,-3.919,-3.9438,-3.9381,-3.9462,-3.9604,-3.9697,-3.9727,-3.9753,-3.9842,-3.9874,-3.9482,-3.9482,-3.9482,0,-3.8733,-3.8862,-3.8819,-3.8923,-3.8962,-3.8876,-3.9,-3.9028,-3.9089,-3.9118,-3.9055,-3.9219,-3.9241,-3.9405,-3.9466,-3.9496,-3.9528,-3.9459,-3.9726,-3.9752,-3.9775,-3.986,-3.9893,-3.9492,-3.9491,-3.949,-3.9489,0,-3.9017,-3.9108,-3.9202,-3.9261,-3.9311,-3.9424,-3.9398,-3.9454,-3.9418,-3.9412,-3.9545,-3.9567,-3.964,-3.9677,-3.9644,-3.9837,-3.9802,-3.9733,-3.9621,-3.9821,-3.99,-3.9932,-3.9506,-3.9502,-3.9499,-3.9497,0,0,-3.935,-3.9381,-3.9417,-3.9442,-3.9478,-3.9548,-3.9657,-3.9727,-3.9776,-3.982,-3.9911,-4.0025,-3.9961,-3.9999,-3.9968,-4.005,-4.0245,-3.9971,-3.9971,-4.0022,-4.046,-4.0512,-4.055,-4.0207,-4.0212,-4.0217,-4.0457,0,-3.9587,-3.9775,-3.9738,-3.9922,-4.0005,-3.9924,-4.0019,-4.0051,-4.0048,-4.0119,-4.0115,-4.0196,-4.0106,-4.0128,-4.0205,-4.0205,-4.0333,-4.0187,-4.0292,-4.0296,-4.0285,-4.0591,-4.0647,-4.0872,-4.0487,-4.0492,-4.0496,0,-3.989,-3.9944,-4.0136,-4.0157,-4.019,-4.0276,-4.0337,-4.0406,-4.044,-4.0432,-4.0474,-4.0427,-4.0536,-4.0421,-4.0571,-4.0473,-4.0513,-4.052,-4.0527,-4.0537,-4.0409,-4.061,-4.0943,-4.0978,-4.0544,-4.054,-4.0537,0,-4.0114,-4.0235,-4.0365,-4.0389,-4.0417,-4.0479,-4.0494,-4.0522,-4.0566,-4.0619,-4.0648,-4.0714,-4.0751,-4.0803,-4.0775,-4.0694,-4.093,-4.0813,-4.0927,-4.0928,-4.0982,-4.0979,-4.1328,-4.1007,-4.1006,-4.1005,-4.1005,0,-4.0384,-4.0505,-4.0466,-4.0546,-4.0679,-4.0635,-4.0768,-4.0773,-4.0798,-4.0878,-4.0812,-4.0889,-4.0847,-4.0921,-4.09,-4.1027,-4.1044,-4.1041,-4.1034,-4.1048,-4.1048,-4.1074,-4.1059,-4.1014,-4.1012,-4.1011,-4.1009,0,-4.0658,-4.0636,-4.0773,-4.0787,-4.0793,-4.0891,-4.0903,-4.0978,-4.0969,-4.1071,-4.1092,-4.1079,-4.1162,-4.1139,-4.123,-4.1215,-4.1377,-4.1349,-4.1365,-4.1359,-4.1474,-4.1464,-4.1853,-4.1901,-4.1548,-4.1552,-4.1555,0,-4.0832,-4.0923,-4.0946,-4.0994,-4.1013,-4.1092,-4.1136,-4.1096,-4.1146,-4.1191,-4.1261,-4.1338,-4.1397,-4.1534,-4.1533,-4.1602,-4.1576,-4.1708,-4.1586,-4.1597,-4.1579,-4.1575,-4.1584,-4.1732,-4.1736,-4.174,-4.1742,0,-4.1143,-4.1128,-4.1194,-4.1256,-4.1311,-4.1358,-4.14,-4.1443,-4.1406,-4.1465,-4.1548,-4.1594,-4.1686,-4.1763,-4.1826,-4.1841,-4.1787,-4.178,-4.181,-4.1826,-4.1831,-4.183,-4.1432,-4.1772,-4.1769,-4.1767,-4.1765,-4.1764,-4.1373,-4.145,-4.1478,-4.1553,-4.158,-4.162,-4.1691,-4.1689,-4.1758,-4.1829,-4.1801,-4.1897,-4.1928,-4.2006,-4.203,-4.2105,-4.2055,-4.2099,-4.211,-4.2122,-4.2136,-4.1818,-4.2116,-4.2115,-4.2114,-4.2114,-4.2113,0,-4.1682,-4.1695,-4.1765,-4.1824,-4.1884,-4.1825,-4.1867,-4.1921,-4.2006,-4.2039,-4.2099,-4.2195,-4.2269,-4.2273,-4.2342,-4.2402,-4.2378,-4.2422,-4.2417,-4.2422,-4.2177,-4.2144,-4.2439,-4.2439,-4.2439,-4.2439,-4.2439,-4.2439,-4.1849,-4.1976,-4.1963,-4.2102,-4.2114,-4.2207,-4.2237,-4.2273,-4.2299,-4.2409,-4.247,-4.2471,-4.2493,-4.2563,-4.2629,-4.2628,-4.2657,-4.271,-4.27,-4.2471,-4.2439,-4.2408,-4.2377,-4.2717,-4.2717,-4.2939,-4.2941,-4.2942]},{"header":{"parameterUnit":"m.s-1","parameterCategory":1,"la1":30.2991,"la2":30.254,"lo1":-89.0895,"lo2":-89.0444,"dy":0.0017,"dx":0.0017,"nx":28,"ny":28,"refTime":"2024-12-13T03:00:00:Z","depth":0,"parameterNumber":3,"parameterNumberName":"V-component_of_WINDS"},"data":[0,0,0,0,0,0,0,0,0,0,0,0,0,0,0,0,0,0,0,0,0,0,0,0,0,0,0,0,0,0,0,0,0,0,0,0,0,0,0,0,0,0,0,0,0,0,0,0,0,0,0,0,0,0,0,0,0,0,-2.3125,-2.3125,0,-2.3149,-2.3149,-2.3149,-2.3125,-2.3124,-2.3123,-2.3122,-2.3145,-2.3147,-2.3148,0,0,0,0,0,0,0,0,0,0,0,0,0,-2.3055,-2.3056,-2.3125,-2.3125,-2.3125,-2.3149,-2.3149,-2.315,-2.3125,-2.3124,-2.3123,-2.3121,-2.3145,-2.3147,-2.3149,0,0,0,0,0,0,0,0,0,0,0,0,0,-2.3083,-2.3057,-2.3125,-2.3116,-2.3115,-2.3149,-2.3149,-2.315,-2.3125,-2.3124,-2.3122,-2.3121,-2.3144,-2.3147,-2.3149,-2.3192,0,0,-2.3156,-2.3157,0,0,0,0,0,0,0,0,-2.3081,-2.3085,-2.3117,-2.3117,-2.3116,-2.3132,-2.3133,-2.3164,-2.3126,-2.3121,-2.3122,-2.312,-2.3142,-2.3145,-2.3152,-2.3193,-2.3194,-2.3156,-2.3157,-2.3158,-2.3159,0,0,0,0,0,0,0,-2.3079,-2.3084,-2.3134,-2.3117,-2.3117,-2.311,-2.3112,-2.3139,-2.314,-2.3122,-2.312,-2.3123,-2.3142,-2.315,-2.3153,-2.3194,-2.3156,-2.3158,-2.3159,-2.316,-2.3269,-2.327,0,0,0,0,0,0,-2.3079,-2.3083,-2.3133,-2.3135,-2.3095,-2.3112,-2.3115,-2.3129,-2.3139,-2.3139,-2.3124,-2.3122,-2.3147,-2.315,-2.3153,-2.3203,-2.3158,-2.316,-2.3162,-2.3267,-2.3269,-2.3271,0,0,0,0,0,0,-2.3077,-2.3083,-2.3133,-2.3108,-2.3114,-2.3115,-2.3131,-2.313,-2.3138,-2.3141,-2.3141,-2.3133,-2.3146,-2.315,-2.3182,-2.3203,-2.3161,-2.3164,-2.3266,-2.3268,-2.327,-2.3303,0,0,0,0,0,0,-2.3075,-2.3083,-2.31,-2.3109,-2.3116,-2.3162,-2.3132,-2.3131,-2.3142,-2.3139,-2.3149,-2.315,-2.3145,-2.3179,-2.3184,-2.3206,-2.3165,-2.3264,-2.3267,-2.3269,-2.33,-2.3306,-2.3311,0,0,0,0,0,-2.3073,-2.3109,-2.3101,-2.3107,-2.3137,-2.3163,-2.3167,-2.3161,-2.3144,-2.3161,-2.3162,-2.3149,-2.32,-2.3182,-2.3188,-2.3211,-2.3262,-2.3266,-2.3269,-2.3297,-2.3305,-2.3311,0,0,0,0,0,0,-2.3102,-2.311,-2.3101,-2.3141,-2.3152,-2.3159,-2.318,-2.3169,-2.3185,-2.3181,-2.3173,-2.3176,-2.3209,-2.3213,-2.3193,-2.3252,-2.3228,-2.3233,-2.3248,-2.3255,-2.3261,-2.3259,-2.3167,0,0,0,0,0,-2.3113,-2.3135,-2.314,-2.3174,-2.318,-2.3179,-2.319,-2.3185,-2.3195,-2.3199,-2.3203,-2.3213,-2.3231,-2.3243,-2.326,-2.33,-2.3301,-2.3319,-2.3324,-2.3329,-2.3333,-2.3353,-2.336,-2.3282,-2.3282,-2.3282,0,0,-2.3137,-2.3143,-2.3157,-2.318,-2.3188,-2.3209,-2.3183,-2.3207,-2.3222,-2.3203,-2.3233,-2.3236,-2.3246,-2.3282,-2.3298,-2.3287,-2.3355,-2.3333,-2.3337,-2.3339,-2.3357,-2.3365,-2.3371,-2.3284,-2.3284,-2.3284,0,0,-2.3189,-2.3197,-2.3226,-2.3234,-2.3245,-2.3244,-2.3251,-2.3259,-2.3261,-2.3291,-2.3276,-2.3294,-2.3326,-2.3333,-2.3341,-2.3395,-2.3383,-2.3401,-2.343,-2.345,-2.3456,-2.3461,-2.3479,-2.3486,-2.3405,-2.3405,-2.3405,0,-2.3217,-2.3249,-2.3242,-2.3266,-2.3276,-2.326,-2.3288,-2.3296,-2.3312,-2.3319,-2.3306,-2.3344,-2.335,-2.3386,-2.3399,-2.3407,-2.3413,-2.3399,-2.3455,-2.3461,-2.3466,-2.3483,-2.349,-2.3407,-2.3407,-2.3406,-2.3406,0,-2.3281,-2.3303,-2.3325,-2.334,-2.3353,-2.3379,-2.3375,-2.3389,-2.3382,-2.3382,-2.3411,-2.3418,-2.3435,-2.3443,-2.3437,-2.3479,-2.3471,-2.3457,-2.3433,-2.3475,-2.3491,-2.3498,-2.341,-2.3409,-2.3408,-2.3408,0,0,-2.3354,-2.3364,-2.3372,-2.3379,-2.3389,-2.3406,-2.343,-2.3447,-2.3458,-2.3469,-2.3489,-2.3516,-2.3502,-2.3511,-2.3506,-2.3523,-2.3563,-2.3506,-2.3506,-2.3516,-2.3607,-2.3617,-2.3625,-2.3555,-2.3556,-2.3557,-2.3606,0,-2.3406,-2.3449,-2.3443,-2.3484,-2.3504,-2.3487,-2.3509,-2.3517,-2.3517,-2.3533,-2.3533,-2.3551,-2.3533,-2.3538,-2.3554,-2.3555,-2.3581,-2.3551,-2.3573,-2.3573,-2.357,-2.3633,-2.3644,-2.369,-2.3612,-2.3613,-2.3614,0,-2.3473,-2.3486,-2.3529,-2.3535,-2.3543,-2.3562,-2.3576,-2.3592,-2.36,-2.3599,-2.3608,-2.3599,-2.3623,-2.3599,-2.363,-2.361,-2.3618,-2.362,-2.3621,-2.3623,-2.3596,-2.3636,-2.3705,-2.3711,-2.3624,-2.3623,-2.3623,0,-2.352,-2.3549,-2.3578,-2.3584,-2.3592,-2.3605,-2.3609,-2.3616,-2.3626,-2.3638,-2.3644,-2.3659,-2.3667,-2.3678,-2.3672,-2.3655,-2.3704,-2.368,-2.3703,-2.3703,-2.3714,-2.3713,-2.3784,-2.372,-2.372,-2.372,-2.372,0,-2.3578,-2.3605,-2.3599,-2.3617,-2.3645,-2.3638,-2.3666,-2.3668,-2.3674,-2.3691,-2.3678,-2.3694,-2.3686,-2.3702,-2.3698,-2.3724,-2.3727,-2.3726,-2.3725,-2.3727,-2.3727,-2.3732,-2.3728,-2.3722,-2.3722,-2.3721,-2.3721,0,-2.3636,-2.3633,-2.3663,-2.3668,-2.367,-2.3691,-2.3694,-2.371,-2.3709,-2.3731,-2.3735,-2.3733,-2.375,-2.3746,-2.3765,-2.3762,-2.3794,-2.3789,-2.3792,-2.379,-2.3813,-2.381,-2.3889,-2.3898,-2.3829,-2.383,-2.383,0,-2.3673,-2.3693,-2.37,-2.371,-2.3715,-2.3732,-2.3742,-2.3734,-2.3745,-2.3755,-2.377,-2.3786,-2.3798,-2.3826,-2.3826,-2.384,-2.3834,-2.3861,-2.3836,-2.3838,-2.3833,-2.3832,-2.3833,-2.3866,-2.3866,-2.3867,-2.3868,0,-2.3739,-2.3736,-2.3751,-2.3765,-2.3777,-2.3787,-2.3796,-2.3805,-2.3798,-2.3811,-2.3828,-2.3838,-2.3856,-2.3872,-2.3885,-2.3888,-2.3876,-2.3875,-2.3881,-2.3883,-2.3884,-2.3883,-2.3804,-2.3874,-2.3873,-2.3872,-2.3872,-2.3872,-2.3787,-2.3804,-2.381,-2.3826,-2.3832,-2.3841,-2.3856,-2.3856,-2.387,-2.3885,-2.3879,-2.3899,-2.3905,-2.392,-2.3925,-2.394,-2.393,-2.3938,-2.394,-2.3942,-2.3945,-2.3882,-2.3942,-2.3942,-2.3942,-2.3942,-2.3941,0,-2.3852,-2.3855,-2.387,-2.3882,-2.3895,-2.3883,-2.3892,-2.3903,-2.392,-2.3927,-2.3939,-2.3958,-2.3973,-2.3973,-2.3987,-2.3998,-2.3993,-2.4002,-2.4001,-2.4001,-2.3954,-2.3947,-2.4006,-2.4006,-2.4006,-2.4006,-2.4006,-2.4006,-2.3886,-2.3913,-2.391,-2.3939,-2.3942,-2.3961,-2.3967,-2.3974,-2.3979,-2.4001,-2.4013,-2.4013,-2.4017,-2.403,-2.4043,-2.4043,-2.4048,-2.4058,-2.4056,-2.4011,-2.4005,-2.3999,-2.3992,-2.406,-2.406,-2.4102,-2.4103,-2.4103]}]]